When you browse on this site, cookies collect data to enhance your experience and personalize the content and advertising you see.
Visit our Privacy Policy to learn more. By continuing to use the site, you agree to this use of cookies and data.
  • In Hungary
  • List of Countries
  • For 7 days
  • Water Temperature
  • Weather Map
  • News
  • Weather Widgets
  • user-avatar
    Login

    Hourly Weather Amplepuis

    Today, 13 December, Friday

    Time Temperature Precipitation Wind Pressure Humidity
    00:00 +3°C° 0 mm 3 mps 697 mmHg 90%
    01:00 +3°C° 0.7 mm 3 mps 695 mmHg 91%
    02:00 +4°C° 0.7 mm 4 mps 694 mmHg 92%
    03:00 +4°C° 0.7 mm 4 mps 692 mmHg 93%
    04:00 +5°C° 1.4 mm 4 mps 692 mmHg 91%
    05:00 +5°C° 1.4 mm 5 mps 692 mmHg 89%
    06:00 +5°C° 0 mm 6 mps 693 mmHg 90%
    07:00 +5°C° 0.3 mm 5 mps 694 mmHg 87%
    08:00 +3°C° 0.3 mm 5 mps 694 mmHg 84%
    09:00 +3°C° 0.3 mm 5 mps 695 mmHg 81%
    10:00 +3°C° 0.4 mm 5 mps 696 mmHg 81%
    11:00 +3°C° 0.4 mm 6 mps 697 mmHg 81%
    12:00 +3°C° 0.4 mm 6 mps 697 mmHg 82%
    13:00 +2°C° 0.7 mm 6 mps 698 mmHg 84%
    14:00 +2°C° 0.7 mm 6 mps 698 mmHg 86%
    15:00 +2°C° 0.7 mm 6 mps 699 mmHg 88%
    16:00 +2°C° 0.3 mm 5 mps 700 mmHg 89%
    17:00 +1°C° 0.3 mm 5 mps 701 mmHg 90%
    18:00 +1°C° 0.3 mm 4 mps 701 mmHg 91%
    19:00 +2°C° 0.2 mm 3 mps 702 mmHg 92%
    20:00 +3°C° 0.2 mm 2 mps 702 mmHg 93%
    21:00 +4°C° 0.2 mm 1 mps 702 mmHg 94%
    22:00 +3°C° 1.1 mm 2 mps 702 mmHg 95%
    23:00 +3°C° 1.1 mm 2 mps 702 mmHg 96%

    Tomorrow, 14 December, Saturday

    Time Temperature Precipitation Wind Pressure Humidity
    00:00 +2°C° 1.1 mm 3 mps 702 mmHg 96%
    01:00 +3°C° 0.9 mm 3 mps 702 mmHg 96%
    02:00 +4°C° 0.9 mm 3 mps 702 mmHg 96%
    03:00 +6°C° 0.9 mm 2 mps 702 mmHg 95%
    04:00 +5°C° 0.2 mm 3 mps 703 mmHg 94%
    05:00 +7°C° 0.2 mm 3 mps 704 mmHg 92%
    06:00 +8°C° 0.2 mm 3 mps 705 mmHg 91%
    07:00 +8°C° 0.7 mm 2 mps 706 mmHg 91%
    08:00 +8°C° 0.7 mm 2 mps 706 mmHg 92%
    09:00 +9°C° 0.7 mm 1 mps 707 mmHg 93%
    10:00 +8°C° 0.3 mm 2 mps 707 mmHg 91%
    11:00 +9°C° 0.3 mm 2 mps 707 mmHg 90%
    12:00 +9°C° 0.3 mm 2 mps 708 mmHg 89%
    13:00 +9°C° 0.2 mm 2 mps 708 mmHg 89%
    14:00 +9°C° 0.2 mm 2 mps 708 mmHg 90%
    15:00 +9°C° 0.2 mm 2 mps 708 mmHg 90%
    16:00 +9°C° 0.6 mm 2 mps 709 mmHg 91%
    17:00 +9°C° 0.6 mm 2 mps 709 mmHg 91%
    18:00 +9°C° 0.6 mm 3 mps 709 mmHg 92%
    19:00 +9°C° 0 mm 3 mps 709 mmHg 91%
    20:00 +9°C° 0 mm 3 mps 709 mmHg 89%
    21:00 +8°C° 0 mm 3 mps 709 mmHg 88%
    22:00 +8°C° 0 mm 3 mps 709 mmHg 87%
    23:00 +7°C° 0 mm 4 mps 709 mmHg 87%

    Day after tomorrow, 15 December, Sunday

    Time Temperature Precipitation Wind Pressure Humidity
    00:00 +7°C° 0 mm 4 mps 709 mmHg 86%
    01:00 +6°C° 0 mm 4 mps 709 mmHg 86%
    02:00 +6°C° 0 mm 4 mps 709 mmHg 85%
    03:00 +6°C° 0 mm 4 mps 709 mmHg 85%
    04:00 +6°C° 0 mm 4 mps 709 mmHg 84%
    05:00 +6°C° 0 mm 4 mps 709 mmHg 84%
    06:00 +6°C° 0 mm 4 mps 709 mmHg 83%
    07:00 +6°C° 0 mm 4 mps 709 mmHg 82%
    08:00 +7°C° 0 mm 4 mps 710 mmHg 81%
    09:00 +8°C° 0 mm 3 mps 710 mmHg 80%
    10:00 +9°C° 0 mm 3 mps 710 mmHg 77%
    11:00 +10°C° 0 mm 3 mps 710 mmHg 74%
    12:00 +11°C° 0 mm 4 mps 710 mmHg 72%
    13:00 +11°C° 0 mm 3 mps 710 mmHg 72%
    14:00 +11°C° 0 mm 3 mps 710 mmHg 73%
    15:00 +10°C° 0 mm 3 mps 710 mmHg 73%
    16:00 +9°C° 0 mm 3 mps 710 mmHg 76%
    17:00 +9°C° 0 mm 2 mps 710 mmHg 78%
    18:00 +8°C° 0 mm 2 mps 710 mmHg 81%
    19:00 +7°C° 0 mm 2 mps 710 mmHg 82%
    20:00 +7°C° 0 mm 2 mps 710 mmHg 83%
    21:00 +7°C° 0 mm 2 mps 710 mmHg 84%
    22:00 +7°C° 0 mm 2 mps 710 mmHg 85%
    23:00 +7°C° 0 mm 3 mps 709 mmHg 85%

    16 December, Monday

    Time Temperature Precipitation Wind Pressure Humidity
    00:00 +7°C° 0 mm 3 mps 709 mmHg 86%
    01:00 +7°C° 0 mm 3 mps 709 mmHg 85%
    02:00 +7°C° 0 mm 3 mps 708 mmHg 85%
    03:00 +8°C° 0 mm 3 mps 708 mmHg 85%
    04:00 +8°C° 0 mm 3 mps 708 mmHg 84%
    05:00 +7°C° 0 mm 4 mps 707 mmHg 82%
    06:00 +7°C° 0 mm 4 mps 707 mmHg 81%
    07:00 +8°C° 0 mm 4 mps 707 mmHg 79%
    08:00 +8°C° 0 mm 5 mps 707 mmHg 77%
    09:00 +9°C° 0 mm 6 mps 707 mmHg 75%
    10:00 +10°C° 0 mm 6 mps 707 mmHg 72%
    11:00 +11°C° 0 mm 7 mps 706 mmHg 69%
    12:00 +12°C° 0 mm 8 mps 706 mmHg 66%
    13:00 +11°C° 0 mm 8 mps 705 mmHg 67%
    14:00 +11°C° 0 mm 7 mps 705 mmHg 68%
    15:00 +10°C° 0 mm 7 mps 705 mmHg 69%
    16:00 +10°C° 0 mm 7 mps 704 mmHg 67%
    17:00 +10°C° 0 mm 6 mps 704 mmHg 66%
    18:00 +10°C° 0 mm 6 mps 704 mmHg 64%
    19:00 +10°C° 0 mm 6 mps 704 mmHg 64%
    20:00 +10°C° 0 mm 6 mps 704 mmHg 64%
    21:00 +10°C° 0 mm 6 mps 704 mmHg 64%
    22:00 +9°C° 0 mm 7 mps 704 mmHg 64%
    23:00 +9°C° 0 mm 7 mps 704 mmHg 65%

    17 December, Tuesday

    Time Temperature Precipitation Wind Pressure Humidity
    00:00 +9°C° 0 mm 7 mps 704 mmHg 65%
    01:00 +9°C° 0 mm 7 mps 705 mmHg 66%
    02:00 +9°C° 0 mm 6 mps 705 mmHg 66%
    03:00 +9°C° 0 mm 6 mps 705 mmHg 67%
    04:00 +9°C° 0 mm 6 mps 705 mmHg 68%
    05:00 +9°C° 0 mm 5 mps 705 mmHg 69%
    06:00 +9°C° 0 mm 5 mps 705 mmHg 71%
    07:00 +9°C° 0 mm 5 mps 705 mmHg 70%
    08:00 +10°C° 0 mm 5 mps 705 mmHg 69%
    09:00 +10°C° 0 mm 5 mps 706 mmHg 68%
    10:00 +12°C° 0 mm 4 mps 706 mmHg 68%
    11:00 +12°C° 0 mm 4 mps 706 mmHg 69%
    12:00 +12°C° 0 mm 3 mps 706 mmHg 69%
    13:00 +13°C° 0.3 mm 2 mps 706 mmHg 73%
    14:00 +12°C° 0.3 mm 2 mps 706 mmHg 78%
    15:00 +11°C° 0.3 mm 1 mps 705 mmHg 82%
    16:00 +11°C° 0.2 mm 1 mps 706 mmHg 83%
    17:00 +10°C° 0.2 mm 1 mps 706 mmHg 84%
    18:00 +10°C° 0.2 mm 1 mps 707 mmHg 85%
    19:00 +10°C° 0.4 mm 1 mps 707 mmHg 85%
    20:00 +9°C° 0.4 mm 1 mps 708 mmHg 86%
    21:00 +9°C° 0.4 mm 1 mps 708 mmHg 86%
    22:00 +9°C° 1.3 mm 1 mps 708 mmHg 88%
    23:00 +8°C° 1.3 mm 1 mps 709 mmHg 90%

    18 December, Wednesday

    Time Temperature Precipitation Wind Pressure Humidity
    00:00 +8°C° 1.3 mm 1 mps 709 mmHg 92%
    01:00 +7°C° 2.4 mm 2 mps 709 mmHg 94%
    02:00 +6°C° 2.4 mm 2 mps 709 mmHg 95%
    03:00 +5°C° 2.4 mm 3 mps 709 mmHg 96%
    04:00 +6°C° 2.8 mm 2 mps 710 mmHg 96%
    05:00 +5°C° 2.8 mm 2 mps 710 mmHg 96%
    06:00 +6°C° 2.8 mm 1 mps 710 mmHg 95%
    07:00 +6°C° 0.8 mm 1 mps 711 mmHg 95%
    08:00 +7°C° 0.8 mm 1 mps 711 mmHg 96%
    09:00 +7°C° 0.8 mm 1 mps 711 mmHg 96%
    10:00 +7°C° 1.2 mm 1 mps 711 mmHg 96%
    11:00 +7°C° 1.2 mm 1 mps 711 mmHg 95%
    12:00 +7°C° 1.2 mm 1 mps 711 mmHg 95%
    13:00 +6°C° 0.6 mm 0 mps 711 mmHg 95%
    14:00 +6°C° 0.6 mm 0 mps 710 mmHg 96%
    15:00 +6°C° 0.6 mm 0 mps 710 mmHg 96%
    16:00 +6°C° 0.2 mm 0 mps 710 mmHg 97%
    17:00 +6°C° 0.2 mm 0 mps 710 mmHg 97%
    18:00 +5°C° 0.2 mm 0 mps 709 mmHg 98%
    19:00 +6°C° 0 mm 0 mps 709 mmHg 97%
    20:00 +7°C° 0 mm 1 mps 709 mmHg 97%
    21:00 +7°C° 0 mm 1 mps 709 mmHg 97%
    22:00 +6°C° 0 mm 1 mps 709 mmHg 97%
    23:00 +6°C° 0 mm 1 mps 709 mmHg 97%
    Show more